Location: Hylvaty SDH
(49.9612°N, 16.4057°E)
Time: 12:18:30
(UTC+01:00)

A-11 Canister half - Pass Details

Date: 09 October 2020
Orbit: 1526 x 1683 km, 47.3° (Epoch: 28 October)

Event Time Altitude Azimuth Distance (km) Brightness Sun altitude
Rises 01:33:51 0° 283° (WNW) 4,685 - -45.0°
Reaches altitude 10° 01:36:55 10° 280° (W) 3,709 - -44.9°
Maximum altitude 01:46:00 58° 204° (SSW) 1,770 - -44.4°
Drops below altitude 10° 01:55:19 10° 129° (SE) 3,798 - -43.7°
Sets 01:58:31 0° 125° (SE) 4,804 - -43.5°
